SCP
0 0 0 0 0 0 0 0 0 0 0 0 0 0 0 0 0 0 0 0 0 0 0 0 0 0 0 0 0 0 0 0 0 0 0 0 0 0 0 0 0 0 0
0 0 0 0 0 0 0 0 0 0 0 0 0 0 0 0 0 0 0 0 0 0 0 0 0 0 0 0 0 0 0 0 0 0 0 0 0 0 0 0 0 0 0
0 0 0 0 0 0 0 0 0 0 0 0 0 0 0 0 0 0 0 0 0 0 0 0 0 0 0 0 0 0 0 0 0 0 0 0 0 0 0 0 0 0 0
0 0 0 0 0 0 0 0 0 0 0 0 0 0 0 0 0 0 0 0 0 0 0 0 0 0 0 0 0 0 0 0 0 0 0 0 0 0 0 0 0 0 0
0 0 0 0 0 0 0 0 0 0 0 0 0 0 0 0 0 0 0 0 0 0 0 0 0 0 0 0 0 0 0 0 0 0 0 0 0 0 0 0 0 0 0
0 0 0 0 0 0 0 0 0 0 0 0 0 0 0 0 0 0 0 0 0 0 0 0 0 0 0 0 0 0 0 0 0 0 0 0 0 0 0 0 0 0 0
0 0 0 0 0 0 0 0 0 0 0 0 0 0 0 0 0 0 0 0 0 0 0 0 0 0 0 0 0 0 0 0 0 0 0 0 0 0 0 0 0 0 0
0 0 0 0 -0 -0 -0 -0 0 0 0 0 0 0 0 0 0 0 0 0 0 0 0 0 0 0 0 0 0 0 0 0 0 0 0 0 0 0 0 0 0 0 0
0 0 0 0 -0 -0 0 0 0 0 0 0 0 0 0 0 0 0 0 0 0 0 0 0 0 0 0 0 0 0 0 0 0 0 0 0 0 0 0 0 0 0 0
0 0 0 0 -0 0 0 0 0 0 0 0 0 0 0 0 0 0 0 0 0 0 0 0 0 0 0 0 0 0 0 0 0 0 0 0 0 0 0 0 0 0 0
0 0 0 0 0 0 0 0 0 0 0 0 0 0 0 0 0 0 0 0 0 0 0 0 0 0 0 0 0 0 0 0 0 0 0 0 0 0 0 0 0 0 0
0 0 0 0 0 0 0 0 0 0 0 0 0 0 0 0 0 0 0 0 0 0 0 0 0 0 0 0 0 0 0 0 0 0 0 0 0 0 0 0 0 0 0
0 0 0 0 0 0 0 0 0 0 0 0 0 0 0 0 0 0 0 0 0 0 0 0 0 0 0 0 0 0 0 0 0 0 0 0 0 0 0 0 0 0 0
0 0 0 0 0 0 0 0 0 0 0 0 0 0 0 0 0 0 0 0 0 0 0 0 0 0 0 0 0 0 0 0 0 0 0 0 0 0 0 0 0 0 0
0 0 0 0 0 0 0 0 0 0 0 0 0 0 0 0 0 0 0 0 0 0 0 0 0 0 0 0 0 0 0 0 0 0 0 0 0 0 0 0 0 0 0
0 0 0 0 0 0 0 0 0 0 0 0 0 0 0 0 0 0 0 0 0 0 0 0 0 0 0 0 0 0 0 0 0 0 0 0 0 0 0 0 0 0 0
0 0 0 0 0 0 0 0 0 0 0 0 0 0 0 0 0 0 0 0 0 0 0 0 0 0 0 0 0 0 0 0 0 0 0 0 0 0 0 0 0 0 0
0 0 0 0 0 0 0 0 0 0 0 0 0 0 0 0 0 0 0 0 0 0 0 0 0 0 0 0 0 0 0 0 0 0 0 0 0 0 0 0 0 0 0
0 0 0 0 0 0 0 0 0 0 0 0 0 0 0 0 0 0 0 0 0 0 0 0 0 0 0 0 0 0 0 0 0 0 0 0 0 0 0 0 0 0 0
0 0 0 0 0 0 0 0 0 0 0 0 0 0 0 0 0 0 0 0 0 0 0 0 0 0 0 0 0 0 0 0 0 0 0 0 0 0 0 0 0 0 0
0 0 0 0 0 0 0 0 0 0 0 0 0 0 0 0 0 0 0 0 0 0 0 0 0 0 0 0 0 0 0 0 0 0 0 0 0 0 0 0 0 0 0
0 0 0 0 0 0 0 0 0 0 0 0 0 0 0 0 0 0 0 0 0 0 0 0 0 0 0 0 0 0 0 0 0 0 0 0 0 0 0 0 0 0 0
0 0 0 0 0 0 0 0 0 0 0 0 0 0 0 0 0 0 0 0 0 0 0 0 0 0 0 0 0 0 0 0 0 0 0 0 0 0 0 0 0 0 0
0 0 0 0 0 0 0 0 0 0 0 0 0 0 0 0 0 0 0 0 0 0 0 0 0 0 0 0 0 0 0 0 0 0 0 0 0 0 0 0 0 0 0
0 0 0 0 0 0 0 0 0 0 0 0 0 0 0 0 0 0 0 0 0 0 0 0 0 0 0 0 0 0 0 0 0 0 0 0 0 0 0 0 0 0 0
0 0 0 0 0 0 0 0 0 0 0 0 0 0 0 0 0 0 0 0 0 0 0 0 0 0 0 0 0 0 0 0 0 0 0 0 0 0 0 0 0 0 0
Wind_Speed
5 6 6 6 6 6 6 5 4 4 4 4 3 3 3 3 2 1 1 1 1 2 2 3 4 4 3 3 4 4 5 6 12 9 4 3 4 6 6 6 7 8 8
5 6 6 6 6 6 6 6 5 5 5 5 4 4 4 4 3 2 2 2 1 2 2 3 4 3 4 4 4 5 5 6 8 13 7 4 5 6 6 7 6 6 7
5 6 7 6 6 6 6 6 5 5 5 5 5 5 4 4 4 4 3 3 3 3 2 3 4 3 4 4 4 5 5 5 6 9 11 5 5 4 6 6 7 7 7
6 7 7 6 6 6 6 6 6 5 6 6 5 5 4 4 4 4 4 4 4 4 4 4 4 4 4 5 5 5 5 6 6 9 10 8 6 4 4 6 8 6 7
7 7 7 6 6 6 6 6 6 6 5 5 5 5 4 3 3 4 4 4 4 5 4 4 4 5 6 6 5 5 5 6 7 8 10 9 7 4 5 5 8 8 7
7 7 6 6 6 6 5 5 5 5 5 5 4 4 4 3 6 7 5 4 4 4 5 5 5 5 6 9 11 10 9 8 9 9 9 11 11 7 6 6 8 9 9
7 6 6 5 6 5 5 5 5 5 4 4 4 4 4 5 8 8 7 4 4 4 5 5 5 5 6 6 9 12 10 13 14 11 12 13 12 9 8 10 9 10 11
7 6 5 5 5 5 5 5 4 4 4 3 4 4 4 5 9 9 9 5 5 5 5 6 7 7 6 8 7 8 8 8 10 8 10 12 11 9 8 10 10 10 9
6 6 5 4 5 5 5 4 3 3 3 4 3 4 5 6 9 10 9 4 5 6 6 6 7 7 11 13 10 10 11 9 11 14 16 16 19 18 13 8 7 8 9
5 5 4 4 4 4 3 3 2 3 3 4 4 4 4 5 9 11 10 3 5 6 6 6 7 8 13 14 9 9 12 11 8 9 11 12 11 12 14 9 7 8 8
5 5 4 4 3 3 2 2 2 3 3 4 4 4 4 4 7 10 10 4 5 6 7 6 6 14 16 17 15 10 14 14 10 9 8 8 7 6 6 5 6 6 7
4 4 4 3 3 2 2 2 2 2 3 4 4 4 3 3 5 8 11 10 10 7 7 7 8 17 19 19 14 14 18 14 7 7 7 7 6 6 5 5 5 5 6
4 3 3 2 2 2 2 2 2 2 2 3 3 4 4 4 5 10 11 13 14 9 8 14 17 19 18 13 14 16 11 6 6 7 7 7 5 5 5 4 4 4 4
4 3 2 2 2 2 1 1 1 2 2 3 3 4 5 5 4 4 5 6 9 10 8 10 15 17 14 12 9 8 5 5 6 7 7 6 5 4 4 4 4 4 4
3 3 2 2 1 1 1 1 2 2 2 3 3 4 5 6 8 14 11 8 8 9 11 7 6 6 5 5 5 5 5 5 5 5 6 6 5 5 5 4 3 3 3
3 2 1 1 1 1 2 3 4 5 7 8 8 8 6 11 16 17 18 18 19 17 11 6 6 6 6 6 6 6 5 5 5 6 5 5 5 5 5 4 3 3 4
2 2 1 1 1 1 2 2 4 5 6 8 9 11 11 14 15 16 17 17 15 13 6 5 6 6 6 6 6 6 6 6 6 5 5 5 5 5 5 4 3 3 4
1 1 1 1 0 1 1 2 2 3 5 4 7 11 13 14 14 15 15 11 7 6 4 5 5 5 5 6 6 6 6 6 5 5 5 5 5 5 4 4 4 4 4
1 1 1 0 1 1 1 2 2 3 4 5 5 6 9 12 12 13 11 5 5 5 5 5 5 5 5 5 6 6 6 6 6 5 5 5 4 5 4 4 4 4 3
1 1 1 1 1 1 1 2 2 3 3 4 4 5 5 5 4 5 4 4 4 5 5 5 5 5 5 5 5 5 6 5 5 5 5 4 4 4 5 5 4 3 3
1 1 1 1 1 1 1 2 2 3 3 4 4 6 10 4 4 5 4 4 4 5 5 5 5 5 5 5 5 6 6 5 5 5 5 5 5 4 4 4 4 3 3
2 2 1 1 1 1 2 2 2 3 4 4 4 5 10 4 4 4 4 4 4 4 4 4 4 4 4 4 5 5 5 5 5 5 5 5 4 4 4 4 3 3 3
2 2 1 1 1 2 2 2 2 3 4 4 4 4 4 4 4 4 5 5 4 4 4 4 4 4 4 4 4 4 5 5 5 6 5 5 5 4 4 4 4 3 3
2 2 2 1 1 2 2 3 3 3 4 4 4 4 4 4 5 5 5 5 4 4 4 4 4 6 7 6 4 4 4 5 5 4 5 5 5 4 3 3 3 3 3
2 2 2 2 2 2 3 3 4 4 4 4 5 5 5 5 5 5 5 5 5 5 6 5 4 5 7 8 7 6 8 9 7 5 4 4 4 4 3 3 3 3 3
2 2 2 2 3 3 3 4 4 5 5 5 5 5 5 5 5 5 5 5 5 5 6 5 6 7 8 7 8 10 10 10 8 7 4 3 3 3 3 2 3 2 2
Wind_Direction
83 82 80 73 71 73 74 69 68 65 63 60 58 59 56 51 42 41 13 349 265 263 252 248 256 258 258 255 250 250 251 258 276 284 264 271 265 270 275 262 261 261 264
89 88 86 80 75 72 69 63 61 61 56 53 54 56 48 41 37 29 8 350 309 290 281 273 274 278 271 270 265 263 263 260 275 289 292 282 267 269 272 270 266 262 260
92 90 84 78 76 74 67 61 59 60 57 51 49 50 44 39 35 26 9 352 335 316 302 287 285 284 279 280 277 275 275 274 271 282 289 283 275 272 279 275 267 264 263
91 88 82 74 71 69 65 59 54 54 55 49 44 44 41 38 32 20 6 351 336 325 318 305 299 288 282 286 284 280 282 281 278 279 285 288 282 279 279 283 286 269 268
91 86 80 73 68 65 61 56 52 50 50 46 44 38 35 37 28 13 1 345 331 321 315 309 303 296 289 287 285 286 285 284 284 283 286 291 289 292 284 282 287 293 280
93 86 79 77 72 66 62 59 56 50 44 42 39 33 26 19 8 6 358 335 322 314 310 307 302 295 292 296 293 290 285 284 286 285 287 287 291 290 289 286 290 296 293
94 87 80 80 75 65 61 59 53 44 38 36 26 19 9 355 357 352 348 329 310 302 300 303 303 298 297 295 296 296 289 282 279 279 282 284 291 294 294 290 283 281 284
99 89 79 77 75 66 62 55 43 34 27 17 7 360 348 340 345 344 341 331 309 302 299 297 297 299 297 300 295 292 286 281 281 275 271 279 283 286 276 280 284 283 281
100 91 80 77 75 63 54 41 28 15 9 360 346 341 334 328 337 338 340 323 311 308 303 297 294 294 299 304 301 295 294 288 288 283 281 284 288 291 291 287 283 286 289
100 91 79 73 73 66 48 28 9 354 344 337 330 324 314 312 325 333 336 320 313 312 308 299 292 293 301 304 298 294 294 295 294 294 289 289 288 286 287 273 271 278 288
92 87 76 64 63 62 43 16 356 345 336 329 322 317 311 309 319 328 331 326 310 309 307 305 301 305 304 303 300 289 288 296 295 291 290 286 284 280 277 271 262 265 276
86 84 75 61 55 51 36 8 351 340 337 334 329 324 321 323 322 323 327 324 318 305 301 300 300 305 304 302 299 293 297 300 293 291 289 289 290 288 282 276 270 265 266
95 89 79 62 54 41 23 360 347 349 343 332 329 322 322 326 323 326 322 321 318 309 296 298 302 304 304 300 296 299 298 290 289 288 288 289 290 288 286 282 277 272 274
108 102 94 82 60 34 6 354 344 336 331 327 324 318 315 314 314 317 314 316 312 307 300 298 300 300 299 297 296 297 288 281 280 282 285 287 290 289 284 283 284 286 283
112 103 83 63 45 8 349 313 302 268 268 293 290 295 306 308 312 318 318 312 308 301 306 300 298 303 302 303 303 301 299 296 289 284 286 290 291 289 287 281 273 279 275
114 102 86 66 26 358 340 327 322 314 311 309 305 304 298 302 311 315 315 313 313 312 306 295 299 302 305 308 309 308 305 300 298 295 291 290 291 290 290 286 276 271 276
120 126 121 83 28 352 345 341 329 331 328 326 327 323 317 316 318 319 319 318 319 320 305 296 299 302 303 305 305 304 304 306 304 298 295 293 292 292 292 289 282 278 279
123 137 146 144 26 313 308 306 303 309 317 315 323 323 326 326 326 327 328 330 326 328 302 298 301 304 305 305 306 307 307 308 307 306 302 300 297 293 291 289 283 280 281
159 155 154 173 246 264 276 282 284 286 290 300 310 320 326 325 329 333 342 338 318 315 313 310 311 312 312 311 310 306 303 302 305 307 307 310 309 304 296 292 288 282 281
180 179 182 214 243 256 267 279 286 290 295 300 305 309 313 322 327 328 333 318 312 308 310 308 308 309 310 309 308 307 306 307 310 310 311 313 313 311 307 304 301 296 286
169 181 209 231 235 245 258 270 279 285 287 290 292 299 315 322 313 309 311 310 305 302 303 305 306 309 311 313 313 310 310 312 315 319 321 320 320 317 315 311 309 306 301
172 186 202 217 235 250 263 268 273 278 282 287 291 303 316 315 300 300 299 297 297 297 298 298 300 303 305 307 309 312 311 312 316 319 319 318 317 319 320 321 320 319 315
179 190 207 224 234 257 270 269 273 276 279 283 289 294 297 292 289 289 290 291 294 296 298 299 299 302 304 304 304 302 302 304 307 309 310 311 315 317 317 316 319 321 320
184 196 210 228 240 251 261 268 271 272 275 280 283 284 284 283 283 283 284 286 289 290 291 293 292 294 300 305 304 302 295 294 297 296 300 300 305 310 314 314 314 311 309
187 203 217 228 239 250 260 266 268 271 273 275 277 279 280 280 281 281 282 283 287 287 290 290 290 293 297 300 302 301 301 304 303 298 294 294 299 305 308 310 313 317 316
205 218 229 236 242 246 252 260 264 268 270 272 273 275 277 278 279 280 281 281 284 286 288 288 288 291 294 298 299 302 303 301 297 295 290 285 287 292 301 302 307 311 313